| time (UTC) | temp F | wind direction | speed MPH | gust MPH | rain 1hr in | rain 24hr in | rain mn in | humidity % | barometer mb |
| 20260510124526 | 60 | 101 | 1.0 | 3.0 | 0.00 | 0.00 | 0.00 | 86 | 1015.0 |
| 20260510123021 | 58 | 104 | 0.0 | 2.0 | 0.00 | 0.00 | 0.00 | 89 | 1016.9 |
| 20260510121515 | 56 | 101 | 0.0 | 0.0 | 0.00 | 0.00 | 0.00 | 93 | 1014.6 |
| 20260510120025 | 54 | 101 | 0.0 | 0.0 | 0.00 | 0.00 | 0.00 | 94 | 1014.5 |
| 20260510120016 | 54 | 104 | 0.0 | 3.0 | 0.00 | 0.00 | 0.00 | 94 | 1016.4 |
| 20260510114515 | 53 | 101 | 0.0 | 2.0 | 0.00 | 0.00 | 0.00 | 93 | 1014.4 |
| 20260510113016 | 52 | 103 | 0.0 | 4.0 | 0.00 | 0.00 | 0.00 | 94 | 1015.9 |
| 20260510113008 | 52 | 101 | 0.0 | 0.0 | 0.00 | 0.00 | 0.00 | 94 | 1014.0 |
| 20260510111506 | 51 | 101 | 1.0 | 3.0 | 0.00 | 0.00 | 0.00 | 93 | 1013.9 |
| 20260510110016 | 51 | 19 | 0.0 | 11.0 | 0.00 | 0.00 | 0.00 | 93 | 1015.8 |
| 20260510110007 | 51 | 100 | 1.0 | 3.0 | 0.00 | 0.00 | 0.00 | 93 | 1013.9 |
| 20260510104501 | 51 | 1 | 0.0 | 2.0 | 0.00 | 0.00 | 0.00 | 92 | 1013.9 |
| 20260510103100 | 52 | 1 | 0.0 | 4.0 | 0.00 | 0.00 | 0.00 | 92 | 1013.8 |
| 20260510103016 | 52 | 7 | 1.0 | 11.0 | 0.00 | 0.00 | 0.00 | 92 | 1015.9 |
| 20260510101558 | 52 | 12 | 0.0 | 10.0 | 0.00 | 0.00 | 0.00 | 92 | 1013.7 |
| 20260510100101 | 52 | 193 | 0.0 | 0.0 | 0.00 | 0.00 | 0.00 | 92 | 1013.2 |
| 20260510100016 | 52 | 0.0 | 0.0 | 0.00 | 0.00 | 0.00 | 92 | 1015.1 | |
| 20260510094553 | 52 | 193 | 0.0 | 0.0 | 0.00 | 0.00 | 0.00 | 92 | 1012.8 |
| 20260510093054 | 52 | 193 | 0.0 | 0.0 | 0.00 | 0.00 | 0.00 | 92 | 1012.8 |
| 20260510093016 | 52 | 0.0 | 0.0 | 0.00 | 0.00 | 0.00 | 92 | 1014.7 | |
| 20260510091550 | 52 | 193 | 0.0 | 0.0 | 0.00 | 0.00 | 0.00 | 92 | 1012.6 |
| 20260510090048 | 53 | 193 | 0.0 | 0.0 | 0.00 | 0.00 | 0.00 | 91 | 1012.5 |
| 20260510090021 | 53 | 0.0 | 0.0 | 0.00 | 0.00 | 0.00 | 91 | 1014.5 | |
| 20260510084546 | 53 | 193 | 0.0 | 0.0 | 0.00 | 0.00 | 0.00 | 91 | 1012.3 |
| 20260510083057 | 53 | 193 | 0.0 | 0.0 | 0.00 | 0.00 | 0.00 | 91 | 1012.2 |
| 20260510083036 | 53 | 0.0 | 0.0 | 0.00 | 0.00 | 0.00 | 91 | 1014.2 | |
| 20260510081543 | 53 | 193 | 0.0 | 0.0 | 0.00 | 0.00 | 0.00 | 91 | 1012.0 |
| 20260510080041 | 53 | 193 | 0.0 | 0.0 | 0.00 | 0.00 | 0.00 | 90 | 1011.9 |
| 20260510080036 | 53 | 0.0 | 0.0 | 0.00 | 0.00 | 0.00 | 90 | 1013.9 | |
| 20260510074541 | 53 | 193 | 0.0 | 0.0 | 0.00 | 0.00 | 0.00 | 90 | 1012.0 |
| 20260510073040 | 54 | 193 | 0.0 | 0.0 | 0.00 | 0.00 | 0.00 | 89 | 1012.0 |
| 20260510073015 | 54 | 0.0 | 0.0 | 0.00 | 0.00 | 0.00 | 89 | 1014.0 | |
| 20260510071540 | 54 | 193 | 0.0 | 0.0 | 0.00 | 0.00 | 0.00 | 89 | 1012.0 |
| 20260510070037 | 54 | 193 | 0.0 | 0.0 | 0.00 | 0.00 | 0.00 | 89 | 1011.7 |
| 20260510070016 | 54 | 0.0 | 0.0 | 0.00 | 0.00 | 0.00 | 89 | 1013.7 | |
| 20260510064539 | 54 | 193 | 0.0 | 0.0 | 0.00 | 0.00 | 0.00 | 89 | 1011.6 |
| 20260510063035 | 55 | 193 | 0.0 | 0.0 | 0.00 | 0.00 | 0.00 | 88 | 1011.8 |
| 20260510063015 | 55 | 0.0 | 0.0 | 0.00 | 0.00 | 0.00 | 88 | 1013.7 | |
| 20260510061533 | 55 | 193 | 0.0 | 0.0 | 0.00 | 0.00 | 0.00 | 88 | 1011.8 |
| 20260510060035 | 55 | 193 | 0.0 | 0.0 | 0.00 | 0.00 | 0.00 | 87 | 1011.8 |
| 20260510060015 | 55 | 0.0 | 0.0 | 0.00 | 0.00 | 0.00 | 86 | 1013.6 | |
| 20260510054531 | 56 | 193 | 0.0 | 0.0 | 0.00 | 0.00 | 0.00 | 86 | 1011.6 |
| 20260510053041 | 56 | 0.0 | 0.0 | 0.00 | 0.00 | 0.00 | 86 | 1013.5 | |
| 20260510053029 | 56 | 193 | 0.0 | 0.0 | 0.00 | 0.00 | 0.00 | 86 | 1011.6 |
| 20260510051527 | 56 | 193 | 0.0 | 0.0 | 0.00 | 0.00 | 0.00 | 86 | 1011.5 |
| 20260510050024 | 56 | 193 | 0.0 | 0.0 | 0.00 | 0.00 | 0.00 | 86 | 1011.5 |
| 20260510050015 | 56 | 0.0 | 0.0 | 0.00 | 0.00 | 0.00 | 86 | 1013.5 | |
| 20260510044525 | 56 | 193 | 0.0 | 0.0 | 0.00 | 0.00 | 0.00 | 86 | 1011.5 |
| 20260510043024 | 57 | 193 | 0.0 | 0.0 | 0.00 | 0.00 | 0.00 | 86 | 1011.4 |
| 20260510043015 | 56 | 0.0 | 0.0 | 0.00 | 0.00 | 0.00 | 86 | 1013.4 | |
| 20260510041523 | 57 | 193 | 0.0 | 0.0 | 0.00 | 0.00 | 0.00 | 86 | 1011.5 |
| 20260510040023 | 57 | 193 | 0.0 | 0.0 | 0.00 | 0.00 | 0.00 | 86 | 1011.6 |
| 20260510040015 | 57 | 0.0 | 0.0 | 0.00 | 0.00 | 0.00 | 86 | 1013.5 | |
| 20260510034527 | 57 | 193 | 0.0 | 0.0 | 0.00 | 0.00 | 0.00 | 85 | 1011.5 |
| 20260510033024 | 58 | 193 | 0.0 | 0.0 | 0.00 | 0.00 | 0.00 | 85 | 1011.5 |
| 20260510033015 | 58 | 0.0 | 0.0 | 0.00 | 0.00 | 0.00 | 85 | 1013.4 | |
| 20260510031523 | 59 | 193 | 0.0 | 0.0 | 0.00 | 0.00 | 0.00 | 84 | 1011.7 |
| 20260510030024 | 59 | 193 | 0.0 | 0.0 | 0.00 | 0.00 | 0.00 | 82 | 1011.5 |
| 20260510030015 | 59 | 0.0 | 0.0 | 0.00 | 0.00 | 0.00 | 82 | 1013.4 | |
| 20260510024519 | 60 | 193 | 0.0 | 0.0 | 0.00 | 0.00 | 0.00 | 81 | 1011.4 |
| 20260510023018 | 61 | 193 | 0.0 | 0.0 | 0.00 | 0.00 | 0.00 | 80 | 1011.3 |
| 20260510023015 | 61 | 0.0 | 0.0 | 0.00 | 0.00 | 0.00 | 80 | 1013.2 | |
| 20260510021523 | 62 | 193 | 0.0 | 0.0 | 0.00 | 0.00 | 0.00 | 77 | 1011.2 |
| 20260510020040 | 63 | 0.0 | 0.0 | 0.00 | 0.00 | 0.00 | 75 | 1012.9 | |
| 20260510020014 | 63 | 193 | 0.0 | 0.0 | 0.00 | 0.00 | 0.00 | 75 | 1011.0 |
| 20260510014512 | 64 | 193 | 0.0 | 0.0 | 0.00 | 0.00 | 0.00 | 74 | 1010.7 |
| 20260510013015 | 66 | 0.0 | 0.0 | 0.00 | 0.00 | 0.00 | 71 | 1012.3 | |
| 20260510013011 | 66 | 193 | 0.0 | 0.0 | 0.00 | 0.00 | 0.00 | 71 | 1010.5 |
| 20260510011511 | 68 | 193 | 0.0 | 0.0 | 0.00 | 0.00 | 0.00 | 68 | 1010.3 |
| 20260510010015 | 70 | 0.0 | 4.0 | 0.00 | 0.00 | 0.00 | 65 | 1012.0 | |
| 20260510010009 | 70 | 193 | 0.0 | 0.0 | 0.00 | 0.00 | 0.00 | 65 | 1010.1 |
| 20260510004508 | 72 | 193 | 0.0 | 0.0 | 0.00 | 0.00 | 0.00 | 62 | 1010.0 |
| 20260510003015 | 74 | 192 | 0.0 | 4.0 | 0.00 | 0.00 | 0.00 | 58 | 1011.8 |
| 20260510003006 | 74 | 193 | 0.0 | 0.0 | 0.00 | 0.00 | 0.00 | 58 | 1009.8 |
| 20260510001504 | 76 | 193 | 0.0 | 2.0 | 0.00 | 0.00 | 0.00 | 55 | 1009.6 |
| 20260510000017 | 77 | 192 | 0.0 | 4.0 | 0.00 | 0.00 | 0.00 | 50 | 1011.6 |
| 20260510000007 | 77 | 193 | 1.0 | 3.0 | 0.00 | 0.00 | 0.00 | 50 | 1009.6 |
| 20260509234506 | 79 | 193 | 0.0 | 0.0 | 0.00 | 0.00 | 0.00 | 45 | 1009.3 |
| 20260509233017 | 79 | 192 | 1.0 | 4.0 | 0.00 | 0.00 | 0.00 | 43 | 1011.7 |
| 20260509233003 | 79 | 193 | 0.0 | 4.0 | 0.00 | 0.00 | 0.00 | 43 | 1009.3 |
| 20260509231604 | 80 | 193 | 1.0 | 4.0 | 0.00 | 0.00 | 0.00 | 41 | 1009.3 |
| 20260509230103 | 79 | 193 | 0.0 | 3.0 | 0.00 | 0.00 | 0.00 | 37 | 1009.3 |
| 20260509230017 | 79 | 180 | 1.0 | 5.0 | 0.00 | 0.00 | 0.00 | 36 | 1011.6 |
| 20260509224602 | 80 | 177 | 2.0 | 4.0 | 0.00 | 0.00 | 0.00 | 41 | 1009.3 |
| 20260509223102 | 80 | 178 | 1.0 | 4.0 | 0.00 | 0.00 | 0.00 | 41 | 1009.4 |
| 20260509223021 | 80 | 201 | 2.0 | 7.0 | 0.00 | 0.00 | 0.00 | 41 | 1011.7 |
| 20260509221553 | 80 | 206 | 2.0 | 5.0 | 0.00 | 0.00 | 0.00 | 40 | 1009.4 |
| 20260509220053 | 80 | 217 | 2.0 | 6.0 | 0.00 | 0.00 | 0.00 | 44 | 1009.3 |
| 20260509220017 | 80 | 306 | 1.0 | 8.0 | 0.00 | 0.00 | 0.00 | 41 | 1011.5 |
| 20260509214552 | 81 | 342 | 0.0 | 3.0 | 0.00 | 0.00 | 0.00 | 42 | 1009.1 |
| 20260509213048 | 80 | 103 | 0.0 | 4.0 | 0.00 | 0.00 | 0.00 | 43 | 1009.1 |
| 20260509213017 | 80 | 313 | 1.0 | 8.0 | 0.00 | 0.00 | 0.00 | 44 | 1011.4 |
| 20260509211547 | 80 | 277 | 2.0 | 5.0 | 0.00 | 0.00 | 0.00 | 46 | 1009.0 |
| 20260509210051 | 79 | 317 | 1.0 | 6.0 | 0.00 | 0.00 | 0.00 | 47 | 1009.0 |
| 20260509210017 | 79 | 322 | 2.0 | 9.0 | 0.00 | 0.00 | 0.00 | 48 | 1011.3 |
| 20260509204543 | 79 | 245 | 1.0 | 5.0 | 0.00 | 0.00 | 0.00 | 46 | 1009.1 |
| 20260509203053 | 78 | 266 | 1.0 | 7.0 | 0.00 | 0.00 | 0.00 | 46 | 1009.1 |
| 20260509203017 | 78 | 258 | 2.0 | 9.0 | 0.00 | 0.00 | 0.00 | 47 | 1011.3 |
| 20260509201542 | 78 | 236 | 1.0 | 5.0 | 0.00 | 0.00 | 0.00 | 50 | 1009.3 |
| 20260509200040 | 79 | 268 | 2.0 | 5.0 | 0.00 | 0.00 | 0.00 | 50 | 1009.5 |
| 20260509200016 | 79 | 294 | 1.0 | 6.0 | 0.00 | 0.00 | 0.00 | 50 | 1011.8 |
| 20260509194537 | 78 | 186 | 0.0 | 4.0 | 0.00 | 0.00 | 0.00 | 52 | 1009.7 |
| 20260509193034 | 77 | 316 | 2.0 | 4.0 | 0.00 | 0.00 | 0.00 | 55 | 1009.7 |
| 20260509193016 | 77 | 315 | 1.0 | 9.0 | 0.00 | 0.00 | 0.00 | 55 | 1011.9 |
| 20260509191532 | 77 | 285 | 0.0 | 6.0 | 0.00 | 0.00 | 0.00 | 54 | 1009.9 |
| 20260509190041 | 76 | 287 | 2.0 | 9.0 | 0.00 | 0.00 | 0.00 | 53 | 1012.0 |
| 20260509190031 | 76 | 284 | 0.0 | 6.0 | 0.00 | 0.00 | 0.00 | 54 | 1010.1 |
| 20260509184541 | 76 | 228 | 3.0 | 6.0 | 0.00 | 0.00 | 0.00 | 57 | 1010.1 |
| 20260509183025 | 76 | 297 | 3.0 | 7.0 | 0.00 | 0.00 | 0.00 | 61 | 1010.0 |
| 20260509183016 | 76 | 302 | 2.0 | 10.0 | 0.00 | 0.00 | 0.00 | 60 | 1012.0 |
| 20260509181522 | 75 | 338 | 2.0 | 6.0 | 0.00 | 0.00 | 0.00 | 61 | 1010.1 |
| 20260509180017 | 74 | 269 | 3.0 | 11.0 | 0.00 | 0.00 | 0.00 | 63 | 1010.0 |
| 20260509174516 | 73 | 314 | 0.0 | 7.0 | 0.00 | 0.00 | 0.00 | 64 | 1010.1 |
| 20260509173017 | 73 | 338 | 3.0 | 5.0 | 0.00 | 0.00 | 0.00 | 66 | 1010.1 |
| 20260509171511 | 73 | 330 | 2.0 | 6.0 | 0.00 | 0.00 | 0.00 | 66 | 1010.1 |
| 20260509170016 | 71 | 301 | 2.0 | 8.0 | 0.00 | 0.00 | 0.00 | 69 | 1012.2 |
| 20260509170008 | 71 | 359 | 2.0 | 5.0 | 0.00 | 0.00 | 0.00 | 69 | 1010.1 |
| 20260509164506 | 71 | 258 | 2.0 | 6.0 | 0.00 | 0.00 | 0.00 | 69 | 1010.2 |
| 20260509163016 | 70 | 243 | 2.0 | 8.0 | 0.00 | 0.00 | 0.00 | 70 | 1012.3 |
| 20260509163002 | 70 | 151 | 2.0 | 5.0 | 0.00 | 0.00 | 0.00 | 70 | 1010.2 |
| 20260509161604 | 70 | 253 | 3.0 | 7.0 | 0.00 | 0.00 | 0.00 | 74 | 1010.2 |
| 20260509160057 | 69 | 323 | 1.0 | 5.0 | 0.00 | 0.00 | 0.00 | 73 | 1010.2 |
| 20260509160016 | 69 | 298 | 2.0 | 9.0 | 0.00 | 0.00 | 0.00 | 74 | 1012.3 |
| 20260509154602 | 69 | 294 | 2.0 | 5.0 | 0.00 | 0.00 | 0.00 | 75 | 1010.2 |
| 20260509153106 | 68 | 232 | 2.0 | 7.0 | 0.00 | 0.00 | 0.00 | 75 | 1010.1 |
| 20260509153022 | 68 | 292 | 2.0 | 9.0 | 0.00 | 0.00 | 0.00 | 75 | 1012.1 |
| 20260509151557 | 68 | 295 | 3.0 | 8.0 | 0.00 | 0.00 | 0.00 | 77 | 1010.1 |
| 20260509150043 | 67 | 326 | 2.0 | 8.0 | 0.00 | 0.00 | 0.00 | 80 | 1009.9 |
| 20260509150016 | 67 | 277 | 2.0 | 9.0 | 0.00 | 0.00 | 0.00 | 80 | 1011.8 |
| 20260509144540 | 66 | 266 | 3.0 | 8.0 | 0.00 | 0.00 | 0.00 | 81 | 1009.8 |
| 20260509143041 | 65 | 259 | 3.0 | 7.0 | 0.00 | 0.00 | 0.00 | 82 | 1009.9 |
| 20260509143016 | 65 | 257 | 3.0 | 9.0 | 0.00 | 0.00 | 0.00 | 82 | 1011.8 |
| 20260509141542 | 64 | 296 | 3.0 | 7.0 | 0.00 | 0.00 | 0.00 | 84 | 1009.7 |
| 20260509140030 | 63 | 257 | 4.0 | 7.0 | 0.00 | 0.00 | 0.00 | 84 | 1009.8 |
| 20260509140016 | 63 | 250 | 3.0 | 10.0 | 0.00 | 0.00 | 0.00 | 84 | 1011.8 |
| 20260509134532 | 62 | 252 | 3.0 | 8.0 | 0.00 | 0.00 | 0.00 | 87 | 1009.5 |
| 20260509133024 | 61 | 271 | 3.0 | 9.0 | 0.00 | 0.00 | 0.00 | 87 | 1009.4 |
| 20260509133016 | 61 | 244 | 3.0 | 10.0 | 0.00 | 0.00 | 0.00 | 87 | 1011.4 |
| 20260509131527 | 60 | 244 | 2.0 | 6.0 | 0.00 | 0.00 | 0.00 | 89 | 1009.4 |
| 20260509130023 | 59 | 221 | 2.0 | 6.0 | 0.00 | 0.00 | 0.00 | 90 | 1009.3 |
| 20260509130015 | 59 | 216 | 3.0 | 8.0 | 0.00 | 0.00 | 0.00 | 90 | 1011.4 |